吉利星座1组04星 (GEESAT-1 04)

导读

GEESAT 1-04(吉利星座1组04星)是中国发射的商业遥感卫星,由时空道宇科技有限公司运营。该卫星于北京时间2022年6月2日8时成功发射,国际标识为2022-058D,目前已在轨运行超1200天。它运行在近地点约572公里、远地点约573公里的近地轨道,倾角约50度,采用三轴稳定方案,可实现全球覆盖,为商业遥感应用提供空间数据支撑。

基本信息
目录编号:
52788
目录名称:
GEESAT 1-04
国际标识:
2022-058D
轨道中心:
EARTH
卫星名称:
吉利星座1组04星
卫星全名:
吉利星座1组04星 (GEESAT-1 04)
卫星状态:
在轨 (已飞行1563 天)
发射日期:
2022-06-02 UTC
国别 :
中国 (CN)
星等 :
--
该卫星已列入 空间交会检测服务 Space Conjunction Data Service (SCDS) ,当前飞行风险评估等级: 无高风险
轨道信息
数据来源 国际轨道数据 AOE轨道数据
星历时间 2026-09-12T02:42:15+0800
9小时前
查看轨道信息
2026-09-10T16:00:00+0800
1天前
查看轨道信息
半长轴 7002.456km 7002.496km
偏心率 0.0009305 0.0009079
轨道倾角 50.004° 50.003°
近地点辐角 118.239° 110.344°
升交点赤经 163.155° 169.839°
平近点角 241.949° 91.681°
近地点 617.803km 618.001km
远地点 630.835km 630.717km
周期 97.193分钟 97.194分钟
每日圈数 14.815871 14.815746
详细信息
平衡模式:
三轴稳定
覆盖范围:
全球
运营商:
时空道宇科技有限公司
运营商所在国:
中国
制造商(研发单位):
时空道宇科技有限公司
制造商所在国:
中国
使用方式:
暂无
卫星简介
吉利星座(GeeSAT)也称“吉利未来出行星座”,由吉利旗下时空道宇自主研发,布局硬核科技生态,赋能智慧出行、无人系统、智慧城市等领域,并将全面提升吉利控股旗下极氪、领克、远程新能源商用车等品牌的用户智能出行体验。通过“吉利未来出行星座”建设,吉利控股集团将构建天地一体化高精时空信息系统。该卫星仍在工作。
2D轨道图
3D轨道图
轨道高度分析图
轨道倾角分析图
轨道综合分析图
查看轨道综合分析图
交会数据列表
事件ID 空间交会对象 最接近时刻(TCA) 交会距离 交会风险概率(CRP) 交会风险指数(CRI) 操作
CDM_260905-202404-256705-278823
2026-09-05T
20:24:19+0000
2.493 km
极远距离
1.736756E-6 低风险 0.4
CDM_260914-043805-278806-889221
2026-09-14T
04:38:37+0000
2.797 km
极远距离
8.305707E-7 极低风险 0.33
与全量物体交会距离演化趋势
与全量物体交会风险概率演化趋势